Location: Gradaro
(45.0833°N, 10.8833°E)
Time: 23:48:09
(UTC+00:00)

Cosmos 2263 Rocket - Pass Details

Date: 24 April 2021
Orbit: 824 x 848 km, 71.0° (Epoch: 15 May)

Event Time Altitude Azimuth Distance (km) Brightness Sun altitude
Exits shadow 19:59:52 22° 96° (E) 1,725 3.3 -17.0°
Drops below altitude 10° 20:03:44 10° 52° (NE) 2,432 4.5 -17.6°
Sets 20:06:39 0° 38° (NE) 3,373 5.4 -17.9°
